RH
15 16 15 16 18 19 19 20 20 20 21 22 26 29 32 27 17 17 16 17 25 31 33 34 33 33 34 35 35 30 27 27 28 30 34 36 38 40 39 41 41 40 36 24 10 4 12 28 37 39 38 37 39 39 40 42 43 42 40 39 39 41 45 48 48 47 47 48 48 49 52 54 56 57 58 59 60 59 56 52 47 41 38 37 36 33
17 16 18 20 20 20 20 21 21 21 21 23 27 32 32 26 18 17 18 19 25 31 35 35 35 37 37 37 34 28 27 28 29 31 34 36 37 39 41 43 41 37 30 13 3 6 18 31 37 37 37 39 39 36 35 37 40 41 40 41 42 42 46 49 47 46 46 47 48 50 53 56 58 61 64 64 65 66 66 66 64 59 53 51 47 41
17 18 21 22 21 22 22 22 22 22 22 23 27 30 30 26 21 18 17 19 25 30 33 34 38 40 38 35 29 26 27 27 29 32 35 36 37 39 43 43 40 35 21 6 2 9 22 33 35 35 37 39 39 36 35 37 40 43 44 46 47 45 47 49 48 48 48 46 47 49 52 55 56 59 63 63 64 69 72 73 74 71 64 57 52 47
19 21 23 23 23 24 23 22 23 22 22 24 25 26 26 24 25 24 19 19 24 29 34 37 42 42 36 30 26 26 28 27 30 33 34 35 36 40 43 41 39 31 14 3 3 12 25 34 34 33 36 38 38 37 37 39 42 44 47 49 51 50 50 51 50 50 51 49 47 47 48 52 53 54 56 56 58 67 73 76 78 78 72 64 56 50
20 22 23 25 26 25 24 24 23 23 23 24 24 24 24 23 25 27 24 22 22 28 36 40 42 37 30 27 25 26 27 27 30 31 33 35 37 41 41 38 35 23 8 2 4 14 26 33 33 32 35 37 36 36 39 42 44 45 47 49 50 50 50 49 50 50 51 51 50 48 47 49 50 51 52 52 55 62 68 73 79 85 82 72 65 59
21 23 24 25 27 27 27 25 24 25 24 24 25 24 23 23 23 23 23 26 26 30 38 43 44 37 28 25 25 25 26 28 30 31 33 35 38 39 36 34 29 15 3 2 5 15 27 32 31 32 34 35 34 36 39 40 44 47 49 48 46 45 45 45 45 47 48 50 50 49 47 46 47 48 51 52 54 60 66 70 75 83 83 75 72 71
22 24 25 26 28 28 28 27 26 27 25 25 27 25 23 22 22 21 22 29 32 32 38 43 45 39 29 25 26 25 25 27 29 31 32 34 36 34 33 33 23 8 2 3 5 13 27 31 29 31 34 35 36 35 33 35 40 43 45 45 42 41 42 42 42 43 46 49 50 48 46 45 45 46 49 51 53 57 63 67 69 73 75 74 74 72
25 26 26 26 28 29 30 29 28 28 27 27 27 27 25 21 21 22 23 30 35 37 41 41 37 34 29 26 26 25 24 27 29 30 31 32 33 33 33 31 16 4 2 3 4 12 25 31 29 31 34 35 37 33 28 31 33 33 36 39 38 38 39 41 40 42 46 48 47 46 44 44 45 47 49 51 53 54 56 58 59 60 62 64 67 65
26 27 27 27 28 30 32 31 30 30 29 29 28 28 27 23 22 23 26 30 36 42 44 36 31 35 35 27 26 27 25 28 29 29 31 31 32 33 31 24 10 3 3 2 3 11 23 31 30 31 35 35 33 29 25 26 27 26 29 34 34 36 38 40 40 41 46 48 45 44 44 45 46 47 50 52 54 55 56 56 57 58 59 60 62 64
25 26 28 28 29 32 33 33 32 31 32 31 30 30 27 25 24 24 31 34 39 47 45 34 32 42 45 30 25 29 26 27 29 28 31 31 32 32 26 18 8 3 4 2 3 9 20 31 32 30 35 34 29 28 25 22 25 23 23 29 32 35 39 40 41 41 45 47 46 45 44 45 46 46 49 51 53 55 56 57 59 59 60 61 63 65
25 26 29 29 31 32 34 36 32 32 35 32 31 31 28 29 26 27 33 32 42 54 42 32 32 42 51 37 25 29 28 27 30 29 31 32 30 28 23 16 8 3 3 3 3 8 17 28 31 30 33 32 26 28 25 19 23 22 18 25 30 35 39 40 42 43 44 47 47 46 45 44 44 44 45 47 49 50 52 53 54 56 57 59 61 63
26 26 28 30 32 33 35 37 33 34 37 34 35 34 29 31 28 30 33 31 49 60 38 27 31 39 51 41 26 29 29 29 32 31 32 32 28 26 22 15 8 4 3 3 3 6 14 25 31 30 32 32 24 23 24 18 20 22 19 23 28 31 36 39 42 44 44 47 48 46 46 45 44 44 45 46 46 48 49 51 53 56 59 61 63 65
26 27 29 31 33 34 37 39 35 35 37 36 38 35 33 40 41 46 50 44 50 53 34 29 36 42 44 35 28 31 31 32 34 33 33 31 28 26 22 16 9 5 3 2 3 5 11 22 30 30 33 35 25 19 22 21 19 21 21 23 27 29 31 35 41 43 44 47 49 48 47 46 46 46 46 47 47 48 48 51 55 57 60 62 66 69
29 30 31 32 34 35 38 41 38 36 38 39 40 38 38 46 54 61 63 56 52 45 34 34 43 46 39 31 32 33 32 35 36 36 35 31 29 27 23 17 10 5 3 2 3 4 8 18 28 32 33 37 30 19 19 23 22 20 19 23 27 29 29 32 36 39 43 46 49 51 49 49 49 49 49 49 49 50 50 52 56 58 60 63 66 71
35 35 32 32 35 37 40 42 41 38 39 40 42 42 39 40 49 56 58 55 52 47 42 40 43 44 37 33 35 33 35 39 37 38 36 32 30 27 24 19 11 6 4 2 2 3 7 13 23 31 34 37 36 26 20 23 26 22 18 20 25 28 29 30 33 36 39 44 48 50 51 51 51 51 51 52 51 52 53 55 58 61 64 66 68 71
36 35 31 31 34 37 40 42 42 40 39 41 43 45 43 40 43 49 50 45 45 54 58 48 40 39 37 37 36 35 38 40 40 40 38 35 32 28 25 20 12 8 4 2 2 3 6 11 18 27 32 35 39 36 27 24 27 23 17 18 22 27 29 30 33 35 37 41 46 48 49 50 51 52 53 54 54 55 56 58 60 64 67 71 74 74
36 32 30 32 35 38 40 41 43 42 40 41 43 46 47 43 43 48 51 47 52 68 65 45 38 41 41 40 37 37 41 41 42 43 40 38 34 29 26 20 14 10 5 3 3 2 6 11 15 22 29 34 38 40 36 30 26 22 17 17 19 24 28 30 33 35 37 41 44 46 48 49 51 53 55 56 57 57 58 61 63 65 70 75 81 82
39 34 30 33 36 39 40 42 43 42 42 42 43 47 48 46 47 48 51 59 70 78 64 44 43 47 46 44 40 39 43 44 46 46 43 41 36 32 28 21 16 12 6 3 2 2 5 10 16 20 25 32 36 39 40 37 31 25 20 17 17 21 26 30 33 35 37 40 43 45 46 49 51 53 55 58 60 61 61 63 65 67 73 80 87 89
41 38 33 34 38 41 42 43 44 42 43 44 44 46 47 50 51 46 50 64 74 80 73 55 49 49 46 45 42 42 46 48 49 48 45 42 38 33 28 22 19 14 8 4 2 2 3 7 15 19 24 30 35 38 41 41 39 33 25 19 17 20 23 28 31 34 36 38 40 42 44 47 50 53 55 58 61 64 64 65 67 69 75 83 89 90
41 42 38 35 39 43 42 43 45 44 45 46 46 46 47 50 52 48 50 57 61 76 84 71 58 51 43 42 44 46 50 51 51 50 48 45 40 34 29 24 21 15 10 5 3 3 2 5 11 16 22 27 31 37 39 41 43 40 34 26 21 21 22 25 29 31 34 36 37 39 40 43 48 51 55 57 60 64 67 67 69 71 76 82 88 90
40 43 41 37 39 43 43 43 45 45 47 47 46 47 47 50 54 53 53 51 52 71 87 85 74 52 38 43 48 50 53 53 53 53 52 48 42 36 30 26 22 17 12 7 4 3 2 3 8 13 19 23 27 33 36 39 42 44 43 37 29 25 23 23 26 29 31 33 34 36 36 38 42 46 51 55 58 62 67 70 71 72 76 81 86 89
39 42 43 40 39 40 40 42 45 46 47 47 47 48 48 52 55 58 62 57 53 61 68 76 76 51 36 47 51 51 55 54 54 56 55 52 45 38 33 29 24 19 14 10 5 3 2 2 5 10 16 19 23 29 34 39 43 45 47 46 40 32 24 22 25 27 29 30 30 31 33 35 37 40 44 49 55 60 64 68 72 73 76 82 86 88
38 41 44 42 38 38 39 40 42 45 47 48 50 50 51 55 54 57 66 60 55 59 57 65 75 54 37 49 53 53 56 55 56 58 57 56 49 42 37 31 27 22 18 14 8 4 3 2 3 8 13 16 19 24 29 36 42 43 44 48 49 43 32 24 23 26 29 29 29 30 31 33 34 36 39 44 51 59 63 65 69 74 77 82 86 88
37 40 44 41 36 35 36 36 38 43 48 50 52 53 54 56 55 56 61 58 60 63 57 68 81 56 39 52 55 54 57 57 58 59 59 59 54 47 42 34 29 25 21 17 11 6 4 2 3 5 9 15 18 20 23 29 36 40 41 45 51 52 45 34 27 26 28 29 29 30 30 31 33 34 36 40 48 59 65 64 65 69 75 80 85 88
37 39 42 43 44 43 41 41 40 42 49 52 52 54 54 55 58 58 59 62 66 62 56 71 78 53 43 55 55 54 59 58 59 62 61 61 58 53 47 38 32 29 24 20 14 9 5 3 3 3 4 11 16 19 22 25 30 36 41 45 49 53 53 47 38 32 31 31 31 30 31 32 33 34 35 38 47 58 65 66 65 66 70 76 82 87
37 38 39 44 52 56 54 50 44 43 48 49 48 51 54 56 60 60 61 67 68 61 58 64 61 48 46 52 53 56 60 59 62 65 63 62 61 58 52 44 36 31 27 23 17 12 8 4 3 3 3 5 11 17 22 24 27 31 37 43 46 47 50 52 50 45 41 39 36 34 34 34 35 37 36 37 46 57 63 65 67 69 69 71 77 84
37 37 37 40 43 46 46 43 41 43 45 44 45 50 54 56 59 62 64 65 60 59 61 55 49 50 48 47 53 59 60 62 66 66 65 64 63 61 58 50 42 35 31 26 20 15 11 6 3 3 3 4 6 11 17 22 25 27 31 37 42 45 47 50 54 56 54 50 45 41 39 39 40 40 39 39 47 58 62 64 69 73 73 70 73 80
37 35 35 36 35 36 37 35 38 42 42 42 44 46 49 54 58 60 58 53 53 61 61 48 46 54 49 46 55 60 61 66 69 68 67 66 65 64 62 56 48 41 35 30 25 20 14 10 6 3 3 3 4 6 11 18 23 24 26 31 38 44 47 49 54 58 60 59 56 51 45 43 44 43 42 42 48 59 66 68 72 76 78 76 74 78
37 35 33 35 32 31 33 34 36 39 39 38 38 39 43 49 52 52 48 47 54 62 57 46 50 55 48 48 57 63 67 72 73 72 69 68 68 67 65 61 55 48 41 35 30 25 19 14 8 5 3 3 4 5 7 12 19 23 25 27 33 42 47 50 52 55 59 62 63 61 54 47 46 47 45 45 51 63 71 74 77 79 80 81 79 79
36 34 34 37 32 26 29 33 34 35 34 32 33 36 40 42 44 44 44 45 53 56 49 48 55 50 43 50 59 64 71 75 74 74 72 71 71 68 66 66 62 56 50 41 35 30 23 17 11 7 4 3 3 4 5 9 13 18 23 26 30 36 43 49 52 53 57 60 63 66 63 55 49 48 48 48 57 70 77 79 81 83 83 84 82 81
36 34 35 39 34 25 26 31 32 33 32 29 30 34 36 37 39 40 42 45 50 51 46 51 58 44 35 48 56 56 65 70 68 69 71 72 72 69 69 71 69 65 59 49 42 36 28 21 15 9 6 4 3 3 4 5 9 13 19 24 28 32 37 45 52 54 56 58 61 65 68 64 55 49 49 53 64 75 81 83 85 86 86 85 82 82
36 36 36 41 39 28 26 31 31 28 28 27 26 29 31 35 37 36 38 41 43 45 46 52 52 36 29 42 47 46 54 60 57 57 64 70 73 72 72 75 75 72 66 57 49 42 34 27 20 13 9 6 4 4 3 3 5 9 13 18 23 28 32 38 47 54 56 58 59 62 66 68 64 56 53 58 68 78 82 85 88 89 88 85 81 82
35 37 37 42 43 31 27 32 28 24 26 25 23 26 30 33 35 33 32 32 33 38 44 45 39 30 31 40 41 40 45 49 47 47 57 68 72 71 74 79 79 76 73 66 57 50 43 35 26 19 13 9 5 4 4 3 3 5 8 12 17 23 28 33 40 48 55 59 60 60 62 67 69 65 60 60 69 78 81 83 86 89 89 85 81 84
35 37 38 43 45 35 29 30 28 27 29 25 20 23 28 30 31 31 28 26 29 34 36 35 32 34 37 39 41 42 41 43 42 41 53 66 67 66 72 78 81 81 79 75 68 61 54 45 35 27 20 15 9 5 4 4 3 4 5 7 12 18 26 31 35 41 50 58 61 61 61 64 68 71 69 66 67 74 79 80 82 87 90 87 82 85
35 37 39 43 45 39 32 33 37 35 27 21 20 23 25 26 29 31 27 23 27 31 31 32 35 39 42 43 46 48 46 46 43 42 53 62 60 63 70 74 80 84 83 82 78 72 66 56 46 35 27 21 15 9 6 4 3 4 4 4 7 13 20 26 31 36 43 53 60 62 62 63 65 70 74 73 72 73 76 79 80 84 90 90 84 85
35 38 40 42 43 41 39 43 47 37 22 17 21 24 25 27 31 35 30 22 24 30 33 37 39 42 46 49 52 54 55 53 45 44 57 63 60 63 67 69 77 82 84 86 85 82 76 68 57 45 36 29 23 15 9 6 4 4 4 3 5 7 12 18 26 32 37 46 55 61 63 64 65 69 73 75 78 79 79 82 83 84 89 92 88 84
35 37 39 42 43 44 47 46 42 34 24 21 24 25 28 31 35 40 38 27 24 32 39 44 45 45 47 52 54 56 61 58 44 43 58 66 63 65 66 67 73 78 82 88 89 88 85 79 70 58 45 38 31 23 16 10 6 4 4 4 4 4 7 12 20 29 34 39 47 56 63 65 65 68 72 74 78 81 83 84 85 86 90 93 91 85
34 36 39 43 45 47 52 51 50 48 36 25 25 28 32 35 38 43 45 35 30 39 47 51 53 54 55 59 60 58 62 60 44 40 55 64 62 64 66 68 72 75 80 87 89 90 91 87 81 70 57 47 40 33 26 17 9 6 5 4 4 4 5 7 13 22 29 35 40 47 56 64 66 67 71 74 77 80 83 85 87 88 91 95 96 90
34 36 38 43 43 45 51 54 58 54 37 24 28 34 35 38 41 45 48 43 40 48 56 57 59 63 64 67 68 64 66 65 49 40 52 60 58 63 67 69 73 77 80 84 87 90 92 92 89 81 69 58 48 41 35 24 14 8 5 5 5 4 4 5 8 12 20 29 36 40 46 56 64 67 69 73 78 82 83 85 87 90 94 98 100 96
34 36 37 40 40 43 50 53 50 41 29 27 34 37 38 42 44 48 52 51 49 55 60 59 61 64 65 68 72 69 67 67 56 49 56 58 56 62 69 70 75 80 82 84 86 89 93 95 94 89 79 68 57 49 42 33 22 13 7 5 5 5 5 5 5 7 11 18 28 35 39 45 54 64 69 71 77 83 85 83 86 92 97 101 102 99
35 36 37 39 39 43 48 52 48 35 28 32 36 38 42 45 46 50 55 54 53 56 59 60 61 63 64 67 70 68 63 61 56 55 62 63 60 66 72 72 75 80 84 87 88 91 95 97 97 94 87 77 66 56 49 41 31 21 12 8 6 5 5 5 5 6 7 10 18 27 34 38 44 54 65 71 75 82 86 85 85 91 98 101 102 101
36 37 38 38 40 41 43 49 51 39 30 35 39 40 44 47 49 53 55 54 56 57 59 61 62 63 65 67 68 67 65 62 59 60 67 67 65 70 77 78 78 81 86 90 91 94 97 98 98 98 94 86 76 65 56 49 40 30 20 12 8 6 6 6 6 6 6 7 12 20 29 36 39 44 55 68 75 80 85 87 87 89 94 98 99 100
37 38 37 36 38 41 44 49 51 41 33 37 41 42 46 49 50 53 54 52 53 55 58 62 64 65 68 69 69 70 69 68 66 66 68 69 70 76 81 83 85 86 89 92 94 96 99 99 99 99 98 93 85 74 65 56 47 38 28 18 12 8 6 6 6 6 6 6 9 15 23 32 39 40 45 57 72 81 84 86 89 91 94 97 98 97
37 37 38 37 39 42 44 44 41 35 33 39 43 44 47 48 47 50 52 51 50 51 54 58 61 65 70 71 71 72 72 71 71 70 70 70 72 78 84 89 92 93 93 94 95 98 100 100 100 100 99 97 91 82 73 63 53 45 36 27 18 11 8 7 6 6 6 6 7 11 17 26 36 42 43 48 62 78 85 87 89 92 95 97 99 98
37 38 40 41 40 41 42 39 36 35 39 44 46 46 46 45 43 44 45 43 43 48 53 56 57 61 66 69 70 72 72 72 73 74 74 73 73 77 83 90 96 98 97 96 97 99 100 100 100 101 99 97 94 89 81 71 62 52 43 34 26 17 12 9 8 7 7 6 6 8 12 20 30 40 45 46 52 68 83 90 92 93 95 97 99 100
38 40 42 42 42 42 40 38 40 43 44 45 46 46 46 43 37 34 32 31 32 38 46 53 57 60 64 67 68 70 70 72 73 74 76 77 77 77 80 86 93 99 101 99 99 100 100 100 100 101 100 98 96 92 87 79 70 60 50 41 32 24 17 12 10 8 7 7 6 6 9 15 24 34 44 48 49 57 73 89 97 98 98 99 100 101
39 42 43 44 47 47 43 40 44 46 43 43 44 44 40 35 30 29 30 30 31 32 35 41 48 54 60 65 67 68 67 67 69 71 74 77 79 79 80 82 87 93 98 100 100 100 100 100 100 100 100 100 98 94 91 86 78 68 58 47 38 30 23 17 13 11 8 7 6 6 7 11 21 35 46 51 52 54 63 78 92 98 99 99 100 100
44 46 47 48 49 49 46 44 47 47 44 42 42 36 30 27 28 29 31 31 32 33 33 35 38 42 48 53 57 59 57 55 57 63 68 72 75 78 80 81 84 89 94 98 100 100 99 100 100 99 100 101 99 96 93 90 84 75 65 54 43 36 29 22 17 14 10 8 7 7 7 9 17 32 45 51 55 58 60 66 77 88 93 95 95 96
49 50 53 53 52 50 49 48 48 47 43 38 34 28 25 26 28 28 27 27 27 29 31 31 31 33 36 39 43 47 48 46 49 56 61 63 67 73 78 81 84 89 94 98 100 100 100 100 100 100 100 100 100 98 94 92 89 82 72 60 49 41 34 28 22 18 13 10 8 6 6 7 12 22 36 48 58 62 61 61 65 74 82 87 89 90
52 54 55 56 55 52 50 47 44 42 37 31 27 24 24 27 31 31 31 31 30 29 31 31 30 30 33 37 42 45 46 45 48 52 53 53 58 65 72 78 83 88 93 99 100 100 100 100 100 100 100 100 100 99 97 94 91 87 79 67 54 46 39 33 27 22 16 11 8 7 6 6 8 14 24 40 56 66 68 64 61 63 70 77 81 82
54 55 54 51 49 46 44 40 36 35 32 27 25 25 29 37 44 47 48 48 46 43 41 40 38 37 38 41 45 50 53 55 57 61 62 63 64 66 67 72 78 83 90 98 101 100 100 100 100 100 100 100 100 100 99 97 94 90 85 74 60 51 45 37 31 27 20 13 9 8 7 6 6 9 15 27 45 62 72 73 68 63 63 68 74 78
Wind_Speed
17 15 16 19 20 20 22 22 21 19 17 16 16 15 16 25 25 12 9 14 15 18 20 20 19 20 21 22 26 29 30 31 32 32 32 33 35 37 39 42 43 47 52 57 59 55 49 47 44 40 40 40 39 38 35 34 33 33 33 34 33 32 31 32 34 34 35 36 38 39 39 40 41 42 43 43 43 43 42 43 43 44 43 42 40 38
15 16 19 20 19 19 20 20 21 20 18 17 16 16 18 25 23 11 10 15 13 17 20 20 21 21 22 24 27 29 29 30 31 30 32 34 36 38 39 41 44 49 54 59 58 51 47 46 43 40 40 39 39 37 35 34 34 34 34 34 34 34 32 32 34 34 33 34 35 36 36 36 37 37 39 42 42 42 42 41 41 41 39 38 38 39
15 17 19 18 18 19 18 19 21 19 19 18 16 18 21 24 22 11 8 14 13 14 18 20 21 22 24 26 26 27 27 28 29 30 31 34 37 38 39 41 46 52 57 58 54 47 45 44 41 40 39 39 38 37 36 35 34 35 35 35 34 35 34 33 35 34 33 33 32 32 33 33 33 33 35 38 39 39 41 40 39 39 38 36 36 37
15 16 18 19 19 19 18 19 19 19 19 19 18 21 23 23 20 13 11 14 11 12 16 17 20 25 25 23 23 25 26 25 27 29 31 35 37 38 40 43 47 53 57 56 51 45 44 43 40 39 38 38 37 36 36 35 35 35 35 35 35 34 34 33 34 34 34 33 31 29 29 29 31 31 32 34 34 36 39 39 39 39 39 37 35 35
14 13 16 20 20 19 19 19 19 21 20 20 23 24 24 21 17 15 16 16 14 11 9 13 21 23 19 20 24 25 23 24 26 29 32 35 37 38 41 45 49 54 56 53 48 44 43 42 39 38 37 36 36 35 35 35 36 36 35 36 35 34 33 32 33 33 33 32 29 28 27 26 26 28 30 31 30 31 34 37 38 38 38 37 34 35
13 12 14 19 21 21 21 20 22 23 22 22 25 25 23 20 16 14 12 15 18 12 6 12 15 12 16 24 26 23 22 24 27 30 34 36 37 40 43 47 50 53 53 50 45 43 42 40 38 37 36 35 34 33 34 35 35 35 34 34 34 34 33 33 32 31 31 30 28 27 26 25 24 24 25 26 26 26 29 32 35 36 37 36 34 34
13 11 12 16 22 23 22 22 23 24 24 23 25 26 21 16 15 12 10 13 15 11 11 12 9 12 25 30 26 23 23 25 28 32 36 37 39 43 45 47 51 52 51 48 44 41 40 38 36 35 34 34 34 33 33 33 33 33 33 33 33 33 33 32 31 30 29 28 27 26 26 25 24 23 21 21 21 23 25 29 31 33 35 35 35 35
14 11 11 15 20 23 23 23 23 24 24 23 26 28 21 15 13 9 9 11 12 15 14 8 8 16 25 29 27 23 22 25 30 33 36 39 41 44 45 48 51 52 50 47 43 41 38 35 34 33 33 33 33 33 32 32 33 33 32 32 32 32 33 32 30 28 27 27 26 24 24 24 23 22 20 18 17 19 22 25 27 29 30 32 34 35
17 14 13 13 17 22 25 24 24 24 24 24 28 30 23 15 11 8 8 9 10 14 11 7 10 12 18 27 24 18 22 27 30 34 37 39 41 43 46 48 51 51 49 47 43 41 37 33 33 32 32 32 32 33 32 32 32 32 31 31 31 31 31 32 30 27 26 26 25 24 23 22 22 21 20 18 16 16 18 20 22 24 25 27 30 33
20 17 13 12 16 21 24 24 23 23 24 25 28 32 24 13 9 5 6 8 7 9 9 9 9 8 14 22 17 16 26 29 31 36 37 39 42 44 47 49 51 51 49 47 43 41 38 33 31 31 30 30 31 31 31 31 31 32 32 31 31 30 30 30 29 26 25 25 24 23 22 21 20 20 19 18 16 15 15 15 16 18 19 21 23 26
19 16 12 12 15 19 23 24 22 22 24 25 29 35 25 11 6 2 4 7 4 5 7 6 8 12 10 14 17 22 28 30 34 37 37 40 43 45 48 50 51 51 49 47 44 40 38 33 30 29 29 29 30 29 30 31 30 31 32 31 30 29 28 28 28 26 24 23 23 22 21 21 20 19 18 17 16 15 15 14 14 15 16 17 19 21
19 15 11 12 15 18 21 24 22 21 23 24 29 35 26 12 5 1 3 3 2 5 5 6 14 17 8 12 23 26 28 32 35 35 37 43 44 46 49 50 52 51 49 47 44 41 37 33 30 28 28 29 29 28 29 30 30 30 32 31 29 28 27 27 26 25 24 23 23 23 21 20 20 19 18 17 17 16 15 15 16 16 17 18 19 21
19 15 10 12 16 18 22 26 22 19 23 24 29 35 25 9 6 3 1 2 4 6 6 11 22 18 12 18 25 24 28 33 34 36 40 43 45 47 49 51 51 50 49 47 45 42 38 33 31 29 28 28 28 27 27 29 30 30 30 29 28 27 27 25 24 24 24 23 22 22 21 21 20 19 19 18 17 17 17 17 17 18 19 20 21 23
20 15 12 15 16 18 24 27 23 19 21 23 29 32 19 5 5 5 3 4 5 10 17 22 21 14 14 23 26 24 29 33 34 38 42 44 46 47 49 50 51 49 48 47 45 42 39 35 31 29 28 28 27 26 25 27 29 29 29 29 26 25 25 24 23 23 23 22 22 21 21 20 20 20 19 19 18 18 18 19 19 20 21 22 24 25
17 12 15 17 16 19 24 24 23 21 19 20 25 25 15 5 3 2 4 4 7 20 29 22 10 10 18 27 27 25 30 34 36 40 43 46 47 47 49 50 50 49 48 47 45 42 39 35 32 29 28 27 27 26 26 26 27 28 28 28 26 24 24 23 22 21 21 21 21 20 20 20 20 20 20 20 20 20 20 20 21 22 23 25 26 27
16 16 17 16 17 21 23 23 24 20 15 17 21 21 17 7 1 5 8 10 14 19 20 12 11 20 27 28 25 24 31 36 38 42 45 46 46 47 49 49 49 49 47 46 45 42 39 35 32 30 28 27 27 27 26 25 26 26 27 26 25 24 25 24 22 20 20 20 19 20 20 20 20 21 21 21 22 22 22 22 23 23 25 27 27 29
18 19 15 13 19 23 22 23 23 18 14 15 17 20 20 11 6 7 9 11 10 8 8 10 18 30 30 24 23 27 34 38 39 44 46 46 47 47 48 49 49 48 47 46 44 42 39 36 33 31 29 28 27 27 27 26 25 26 26 26 25 24 24 24 23 21 20 19 19 19 20 20 21 21 21 21 22 22 23 23 24 25 26 27 29 30
19 19 14 14 21 24 23 22 20 17 15 15 14 17 19 11 6 8 7 6 3 3 8 11 19 30 26 19 26 33 35 38 41 44 45 46 47 47 47 48 47 48 47 46 43 41 39 36 34 32 31 29 28 28 28 27 26 26 26 26 25 24 23 23 22 21 20 19 19 19 20 20 21 21 21 21 22 22 23 23 25 26 26 28 30 31
20 18 14 17 23 26 24 21 19 16 15 16 15 15 16 9 4 6 5 4 3 2 7 11 17 25 22 20 30 33 34 40 42 43 45 46 46 46 47 47 46 47 46 45 44 40 37 36 34 33 32 32 30 29 29 29 28 26 26 26 25 24 23 22 22 21 20 20 19 19 20 20 20 21 21 22 22 22 23 23 25 26 26 28 30 32
20 15 12 19 27 27 24 20 18 18 17 18 17 16 16 10 7 9 5 4 3 1 5 10 13 20 25 27 31 33 37 42 42 44 46 45 46 46 46 46 46 46 46 45 44 41 38 36 34 33 32 32 32 30 29 30 29 28 26 25 25 25 24 22 22 22 21 20 20 20 20 20 20 21 22 22 22 22 23 24 25 25 26 28 30 32
20 15 14 21 28 26 23 20 18 20 19 19 20 18 17 15 12 13 10 9 7 3 1 3 9 26 32 27 30 38 43 44 43 45 46 45 46 45 44 46 46 45 46 45 43 42 40 36 34 33 32 31 31 30 29 30 30 30 27 25 24 24 24 23 22 22 21 21 21 21 21 20 20 20 21 22 22 23 24 24 25 25 26 28 30 31
20 17 17 23 29 26 21 18 16 18 18 19 21 20 20 20 15 9 7 9 9 8 5 1 10 31 35 29 37 47 45 45 45 45 46 45 44 44 44 45 45 45 46 45 44 42 40 38 35 33 32 31 30 30 30 29 30 31 29 27 25 24 24 24 23 22 22 22 23 22 22 21 21 21 21 21 22 22 23 25 25 25 25 26 28 30
22 19 19 26 29 23 17 14 13 14 16 18 19 21 23 23 18 10 6 9 9 11 13 5 9 28 38 37 45 50 46 46 45 44 46 44 43 43 43 44 44 45 45 45 44 43 41 39 36 34 33 32 30 30 29 29 29 30 30 28 27 26 25 25 24 23 23 23 24 24 24 23 23 22 21 21 21 21 22 24 24 25 25 25 26 28
20 18 23 31 32 24 17 14 13 14 16 19 22 25 27 25 24 18 15 18 14 15 17 5 8 28 43 45 49 49 46 47 44 45 46 43 42 43 42 44 44 44 45 44 44 43 41 40 38 36 34 33 33 31 29 29 29 29 30 29 29 28 27 26 25 24 24 24 24 24 25 25 24 24 23 22 21 21 21 22 23 23 24 24 25 26
17 17 24 27 24 22 18 15 17 20 22 26 29 30 29 27 24 20 19 18 14 18 16 8 11 35 49 48 49 48 46 45 43 44 46 43 43 43 42 43 44 44 45 44 44 44 42 40 39 37 35 35 35 33 31 30 30 29 29 29 30 29 28 27 26 25 25 25 25 25 25 25 25 24 24 23 22 21 21 21 21 22 23 23 23 24
17 18 21 16 9 9 11 15 22 28 30 31 32 30 30 29 25 21 18 15 14 17 16 15 23 47 54 49 49 47 43 44 44 44 46 45 43 43 42 43 43 44 45 44 44 44 42 40 39 38 36 35 34 34 33 31 30 29 28 28 29 30 29 28 27 26 26 26 26 25 25 25 25 24 24 24 22 21 21 21 20 20 21 22 22 22
18 19 19 17 16 16 21 24 24 27 30 32 30 28 28 28 27 23 19 20 21 20 25 31 38 49 54 51 47 44 41 43 46 47 47 46 44 43 43 42 42 43 44 44 44 44 42 41 39 37 36 34 33 32 32 32 30 29 28 28 28 29 30 29 28 27 27 27 26 26 25 25 25 24 24 24 23 21 21 21 20 19 20 20 20 20
20 21 19 21 25 26 28 28 22 21 27 30 28 26 25 25 26 26 25 27 27 20 28 42 43 44 52 52 44 41 42 44 48 49 49 48 46 44 43 42 42 43 43 43 43 43 43 41 39 37 36 34 33 32 30 31 31 30 29 28 28 28 29 29 29 28 28 27 27 26 25 25 24 24 24 24 22 21 20 20 20 19 20 20 20 20
20 22 21 23 28 29 26 23 21 22 27 27 23 21 22 22 26 29 29 32 30 28 33 45 46 47 50 48 41 42 44 46 49 49 49 49 47 45 44 43 42 42 43 43 42 43 43 41 40 37 36 35 34 33 31 30 29 29 29 29 28 28 28 29 29 29 28 28 28 26 26 25 24 23 23 23 22 20 20 20 20 19 20 20 20 19
18 21 23 25 30 29 22 20 23 28 31 26 16 14 17 20 24 29 31 31 31 36 40 44 46 47 44 41 43 46 44 47 50 50 50 49 47 46 45 43 42 42 42 42 42 42 42 42 40 38 36 35 34 33 32 30 29 28 28 28 28 28 28 28 29 29 28 28 28 27 26 24 24 23 22 23 21 19 20 20 20 20 20 20 21 19
18 21 22 26 32 28 22 24 28 31 32 24 13 13 16 19 23 27 29 29 30 36 40 39 43 47 43 41 46 48 46 49 51 51 51 49 46 46 45 44 43 42 42 42 41 41 41 41 41 39 37 35 34 33 32 30 29 28 28 28 28 28 28 28 28 28 28 28 27 27 26 24 23 22 22 22 21 19 20 20 20 20 20 20 20 19
18 21 22 25 30 29 28 29 32 33 28 19 16 19 18 18 22 26 28 29 30 34 38 37 41 45 47 46 48 49 48 50 51 51 51 48 45 45 46 46 44 43 42 42 41 41 41 41 41 41 38 36 35 33 32 31 30 28 28 28 27 27 28 27 27 27 27 28 27 27 26 24 23 22 22 22 21 19 20 20 20 20 20 20 19 17
17 20 23 22 25 31 31 30 35 32 19 14 20 22 18 18 22 27 32 35 34 35 36 36 39 46 49 48 49 50 50 50 51 51 50 47 46 47 48 47 45 44 43 41 41 41 40 41 41 40 39 38 36 35 34 33 31 30 29 27 27 27 27 27 27 27 26 27 27 27 26 24 23 22 21 22 21 20 20 21 21 20 20 20 18 15
18 20 22 20 22 30 32 34 34 21 9 17 25 20 18 23 26 32 39 39 38 37 34 35 42 49 49 49 50 51 51 51 51 51 48 47 48 49 50 48 46 45 44 42 41 41 40 40 40 40 40 39 37 36 35 34 33 31 30 28 27 26 27 27 27 27 26 26 26 26 25 24 23 22 22 22 22 22 22 22 22 22 21 21 18 14
19 20 20 20 23 28 32 31 20 10 16 27 24 19 24 29 31 38 43 42 40 37 32 36 46 50 50 50 50 51 52 52 52 51 48 48 50 51 51 49 47 46 45 43 42 41 40 40 39 40 40 39 38 37 35 35 34 32 31 30 28 27 26 26 26 27 26 25 25 26 25 24 24 23 23 23 23 23 24 24 24 23 22 21 18 15
19 19 20 21 22 23 24 18 9 18 32 29 20 24 31 32 35 40 45 47 41 30 30 41 49 51 50 51 51 52 53 54 53 51 48 49 51 51 51 51 49 48 47 45 44 43 41 40 40 40 40 40 39 37 35 35 34 33 33 31 29 27 26 26 26 26 26 25 24 24 24 24 24 23 23 23 23 24 25 25 26 25 23 21 19 16
18 19 21 20 17 16 19 21 24 30 32 26 25 32 33 34 38 39 44 49 39 28 37 49 51 51 51 51 52 53 54 56 56 52 50 51 52 52 52 53 52 51 50 48 46 45 43 42 40 40 40 40 40 38 37 35 34 34 33 32 30 29 28 26 26 26 26 26 25 24 24 24 24 23 23 23 23 24 25 26 26 26 24 22 19 18
18 20 21 18 16 16 18 22 21 18 18 25 32 35 36 39 40 38 43 47 39 37 47 52 50 52 53 52 53 54 55 59 59 55 53 53 54 53 54 54 54 53 52 50 49 47 45 44 42 40 40 40 39 39 38 36 35 34 33 33 32 30 29 28 27 26 26 26 25 25 24 23 23 23 23 22 22 23 24 25 25 25 24 22 20 19
19 21 23 21 21 21 17 13 9 9 17 30 35 37 39 41 42 40 39 41 45 49 52 52 51 53 52 52 55 55 56 59 59 57 55 54 54 54 54 55 55 54 54 52 51 49 47 45 43 41 39 39 38 38 38 36 35 34 33 33 32 31 30 29 28 26 26 25 25 25 25 24 23 22 22 22 21 22 23 23 23 23 23 22 20 20
22 23 24 24 24 23 19 16 15 19 24 31 36 40 42 41 42 36 26 35 52 55 51 53 54 53 52 54 55 55 55 57 58 57 55 55 55 54 54 55 55 55 55 54 52 51 48 46 44 42 40 39 38 37 37 36 35 34 33 32 32 32 31 30 29 27 26 25 25 25 25 25 23 23 22 21 20 21 23 22 22 21 21 21 21 20
24 23 23 24 24 22 19 20 23 27 28 32 37 42 42 40 38 29 26 42 57 55 52 55 55 54 54 54 54 56 56 56 56 56 55 55 55 54 54 55 55 55 55 54 53 52 49 47 45 42 40 39 38 37 36 35 34 33 33 32 32 31 31 30 30 28 27 26 25 24 25 25 24 23 22 21 20 20 22 22 21 20 20 20 21 21
22 20 21 22 21 19 19 22 24 24 27 33 39 41 40 38 37 38 45 54 57 55 56 57 55 57 57 55 57 59 58 57 57 56 56 56 55 55 55 55 55 54 54 55 54 52 50 48 45 42 41 39 38 37 36 35 34 33 33 32 31 31 31 30 30 29 28 27 26 25 24 24 24 24 23 22 20 20 21 21 21 20 20 20 20 20
22 19 20 22 20 17 16 16 16 19 28 37 40 42 42 43 44 50 56 58 57 58 59 57 58 59 57 58 60 60 60 60 58 57 57 57 56 55 55 55 55 54 54 54 54 53 51 49 46 43 41 39 38 37 36 35 34 33 32 32 31 30 30 30 30 29 28 27 26 25 24 23 23 23 23 23 21 20 20 20 20 21 21 20 20 20
23 21 21 24 24 19 18 18 21 28 37 41 41 41 42 45 48 52 56 59 60 59 58 59 60 57 56 59 61 60 61 61 59 58 58 57 57 56 56 56 56 55 54 54 54 53 52 50 48 44 41 39 38 37 36 35 34 32 32 31 31 30 30 30 30 29 28 27 26 25 24 23 22 22 22 22 21 21 20 19 20 20 21 21 21 21
24 26 28 30 30 29 30 33 35 37 39 41 41 42 43 45 48 51 55 59 61 60 59 60 60 57 56 58 59 61 62 60 60 59 58 57 57 57 56 56 56 55 54 54 53 53 53 51 49 46 42 40 39 37 36 35 34 32 31 31 30 30 29 29 29 29 28 27 26 25 25 24 22 21 21 20 20 20 20 19 19 20 21 21 22 22
29 31 33 34 35 36 38 36 34 34 36 37 39 42 45 49 52 55 57 60 61 60 59 59 59 58 57 56 58 60 61 60 60 60 59 58 58 56 56 57 56 55 55 54 53 53 52 52 51 48 44 41 39 37 36 35 34 33 31 30 30 30 29 29 28 28 28 27 26 25 24 24 23 22 20 19 18 18 19 19 19 19 20 21 22 23
31 30 31 32 33 36 38 33 30 32 35 36 40 44 50 56 60 61 62 63 62 61 60 59 59 59 58 58 59 60 61 61 60 59 58 58 58 57 57 57 56 56 56 54 53 53 52 52 51 49 46 42 39 37 36 35 35 33 31 30 29 28 29 28 28 27 27 27 26 25 24 23 23 22 21 19 18 17 17 18 18 18 19 20 21 23
28 27 27 28 29 31 34 33 33 35 36 36 42 51 57 62 64 64 63 63 63 62 60 59 58 58 59 60 61 62 65 64 62 62 61 59 58 58 56 55 56 56 56 55 54 53 52 51 51 50 48 43 39 37 35 34 35 34 31 30 28 27 27 28 27 27 26 26 25 25 24 23 22 22 21 19 17 16 17 17 18 18 18 18 19 21
24 24 25 27 29 30 32 34 39 44 44 44 50 59 63 65 65 64 63 62 61 61 61 59 58 58 58 59 59 60 62 61 60 60 60 60 60 59 56 55 55 55 56 56 54 53 52 51 50 50 48 44 40 38 35 34 34 34 32 30 28 26 26 26 26 26 25 25 24 24 23 23 22 21 21 19 18 17 16 16 17 18 18 18 17 18
21 22 23 27 31 33 34 38 45 51 54 56 61 65 65 62 62 63 62 61 60 60 60 60 59 58 57 56 56 56 58 58 58 58 59 60 60 59 58 56 55 56 57 57 55 54 51 50 50 49 47 44 41 38 35 33 33 33 32 30 28 26 25 25 25 25 25 24 24 23 23 22 21 21 21 20 19 18 17 16 16 16 18 18 17 17
18 20 24 29 34 37 39 43 47 52 58 63 67 67 64 61 63 64 64 62 61 60 59 59 59 59 58 57 56 57 60 61 60 60 62 62 62 61 61 60 58 58 59 57 56 54 50 49 49 49 46 44 41 37 34 33 33 33 32 30 29 27 25 23 23 24 24 23 22 22 22 21 20 20 20 19 18 19 19 18 17 16 17 18 19 18
Wind_Direction
360 353 3 15 16 19 18 15 16 12 4 356 347 346 331 327 338 340 334 341 327 314 310 308 310 308 307 307 310 318 321 321 322 322 321 324 325 324 325 331 337 338 336 334 330 328 327 329 330 328 328 330 331 331 332 332 332 330 328 327 325 323 320 314 309 307 304 301 297 294 291 289 288 286 285 284 283 283 282 282 283 282 281 281 278 272
351 359 18 20 16 17 16 13 12 8 5 1 348 335 323 324 335 340 343 346 325 308 310 307 306 304 303 305 310 317 320 320 321 320 321 325 326 324 327 334 337 336 334 331 329 328 329 330 330 329 330 331 331 331 332 333 333 331 330 328 326 324 321 316 312 312 312 309 305 301 296 292 289 287 284 282 281 280 280 279 279 280 280 279 278 276
354 10 21 15 14 16 11 11 10 7 6 3 352 334 324 326 333 336 345 342 321 305 309 306 301 300 300 304 313 318 320 321 319 319 323 325 324 326 330 334 334 334 332 329 329 329 330 331 330 330 331 332 331 331 332 334 333 331 330 328 327 324 322 318 315 315 315 313 312 308 300 293 288 284 279 277 278 278 278 278 277 277 277 276 274 274
2 11 15 11 14 11 5 6 5 5 7 5 358 342 330 331 334 326 326 337 331 309 303 301 294 293 297 303 315 321 319 319 319 320 323 323 326 330 332 334 333 332 330 329 330 331 331 331 331 332 333 332 332 332 333 333 332 331 331 330 329 327 324 321 319 317 316 315 317 315 307 298 291 285 280 278 277 275 275 276 276 277 278 279 278 276
359 1 6 9 10 5 0 0 358 360 7 8 2 349 334 330 326 315 317 329 337 328 307 304 297 289 292 310 322 324 319 321 322 322 324 325 329 332 333 332 330 330 330 330 332 332 332 332 332 333 334 333 334 335 334 333 333 334 334 334 333 331 329 326 323 320 317 316 317 317 315 309 300 294 289 286 283 275 272 273 273 275 277 279 280 279
351 348 356 2 4 2 356 354 356 357 1 6 4 352 336 324 316 313 311 316 329 344 345 321 309 289 299 317 325 325 322 324 325 325 327 329 331 332 332 329 328 330 331 333 334 333 332 333 333 334 334 334 336 336 335 334 335 337 337 337 336 334 333 331 328 325 322 321 320 318 319 318 312 306 298 293 288 278 272 271 271 272 274 276 276 274
348 342 346 356 0 358 352 352 356 354 355 1 0 353 340 320 315 313 300 306 316 330 331 318 304 294 304 316 325 326 327 329 328 330 331 332 333 331 329 326 328 332 333 335 336 334 334 334 334 335 334 336 338 337 338 339 339 339 339 339 338 337 336 334 331 329 328 326 324 323 323 323 320 316 310 302 293 281 272 269 268 268 269 270 271 271
350 344 342 350 354 351 350 351 353 352 351 352 354 355 347 326 320 306 289 299 298 309 320 299 281 294 300 313 323 323 330 333 330 332 333 333 332 328 325 326 330 334 336 337 337 336 337 335 335 335 334 337 339 338 340 343 342 342 343 342 342 342 340 337 333 334 335 331 329 328 328 328 326 323 321 316 304 290 280 275 273 272 270 269 269 272
354 347 341 342 345 348 352 351 347 348 348 346 351 355 351 334 322 306 292 302 298 303 302 268 290 299 293 309 321 321 328 334 332 332 333 331 329 326 326 329 333 337 338 338 337 338 338 337 336 335 335 338 339 339 342 345 346 346 347 346 347 349 345 339 336 339 341 336 333 333 333 334 332 330 329 326 319 307 297 291 288 286 283 280 276 276
352 343 334 330 337 347 352 348 343 344 345 344 348 353 355 340 316 311 298 303 295 285 274 269 313 330 302 310 325 325 326 332 333 332 331 328 327 328 330 333 336 339 339 337 337 339 338 337 337 335 336 338 339 339 341 345 348 347 350 352 352 354 350 344 342 345 346 343 340 340 341 342 341 340 340 337 334 328 321 315 309 304 300 296 291 286
349 341 332 330 336 342 346 345 342 341 344 345 347 352 359 354 331 332 298 302 279 272 266 248 319 337 311 311 327 326 326 329 330 329 328 328 330 332 333 336 339 340 340 337 337 338 338 338 338 335 334 337 339 339 339 344 349 348 352 355 355 356 355 351 350 351 353 351 348 349 350 351 352 351 351 350 349 347 344 342 337 332 327 321 315 307
351 347 339 338 336 335 340 343 340 339 345 348 350 355 1 1 350 328 285 309 220 276 265 239 308 318 280 297 324 326 326 327 327 327 328 331 334 334 336 339 340 340 340 337 335 337 339 338 337 336 335 336 337 338 338 342 346 348 351 354 355 357 358 358 357 355 358 359 355 354 355 356 358 357 356 355 354 354 353 352 350 347 343 339 334 328
354 355 348 342 337 336 338 340 342 343 347 350 353 1 6 1 351 352 283 302 249 254 265 289 310 306 271 300 324 327 326 327 327 329 332 334 336 337 339 340 339 340 340 337 334 336 339 338 337 337 336 334 333 335 336 338 343 346 348 351 353 355 358 1 0 359 0 1 358 356 355 356 357 357 356 354 352 350 349 349 347 345 343 342 340 337
355 360 354 344 340 340 337 339 345 345 347 352 359 6 14 21 2 351 309 314 278 276 298 307 308 295 288 315 328 330 330 331 330 331 334 337 338 339 340 339 339 340 339 337 334 334 337 338 337 336 335 332 330 331 333 335 340 343 344 347 350 351 355 359 360 359 360 359 358 356 354 354 354 354 353 351 350 348 345 345 344 342 341 341 339 338
352 350 347 343 341 341 338 339 342 342 344 353 359 6 14 44 67 308 288 302 285 296 307 312 306 290 305 322 328 330 333 334 333 333 336 339 340 340 339 338 338 339 338 337 334 334 336 338 337 335 334 331 328 328 330 333 337 338 338 342 346 346 349 354 357 358 357 357 355 353 352 352 351 351 349 348 348 346 344 343 342 340 339 338 337 336
347 341 341 342 343 343 339 338 339 339 343 346 351 0 2 2 267 260 273 275 280 296 308 307 296 301 309 319 324 329 333 335 335 335 337 340 339 338 338 337 337 338 339 337 334 333 334 336 337 335 333 331 327 326 327 330 332 333 334 338 342 342 343 347 351 353 355 355 352 349 349 348 349 348 346 345 344 343 342 340 339 338 337 336 336 335
346 343 343 344 345 345 341 337 336 334 336 337 344 355 354 343 319 308 288 280 282 286 293 289 297 309 317 325 330 333 334 336 336 336 337 338 338 338 337 336 337 338 338 336 335 333 332 335 336 335 333 331 327 325 325 326 328 329 330 333 337 338 338 340 344 347 350 350 348 345 344 343 344 344 342 341 339 338 338 337 337 337 336 337 337 336
342 342 347 346 343 344 341 335 333 329 327 327 335 348 350 343 330 331 314 303 320 272 278 282 296 309 315 324 332 333 333 336 336 335 336 337 337 337 336 336 337 338 337 336 336 335 333 333 334 334 334 331 327 324 323 323 325 327 327 329 332 334 333 334 337 340 343 344 343 340 340 339 338 338 338 336 335 333 333 333 334 335 336 337 337 338
341 337 343 346 342 342 339 332 330 328 322 319 320 330 342 339 297 315 322 310 327 298 291 296 300 308 309 316 328 331 331 335 335 334 336 337 337 336 334 335 336 336 337 336 336 336 335 332 332 333 333 332 328 324 322 322 322 324 324 325 327 328 328 328 330 333 336 337 337 335 334 335 333 332 333 332 331 329 328 328 330 332 335 336 337 338
343 331 329 342 341 338 336 330 325 322 318 316 314 316 330 333 295 298 291 245 266 259 295 310 310 314 322 325 328 332 333 334 334 334 336 337 336 335 334 334 335 336 336 336 337 338 336 334 332 332 333 332 328 323 321 320 319 320 322 322 323 323 322 324 325 327 329 329 329 329 329 330 329 328 327 327 327 326 323 323 325 328 331 334 335 337
343 328 314 333 340 335 332 329 320 318 316 311 311 312 317 323 312 302 283 251 246 208 241 333 297 309 327 337 331 333 336 335 333 333 335 336 334 334 333 333 334 335 335 336 338 338 337 335 333 332 332 330 328 325 322 320 318 318 318 318 319 317 316 318 320 321 322 321 322 323 324 325 325 324 323 323 323 323 321 319 320 323 327 330 334 337
340 328 312 326 337 335 331 328 319 317 315 308 310 307 307 313 311 306 290 259 235 225 257 224 277 307 332 344 333 335 337 333 333 332 333 335 333 333 332 332 334 334 335 337 339 339 338 336 334 332 330 329 330 329 325 320 317 315 315 315 316 316 312 312 315 315 316 316 317 319 319 320 320 320 321 320 321 321 319 317 316 317 321 326 332 336
337 330 318 325 335 338 335 332 326 320 315 310 310 307 308 311 304 296 283 277 260 251 270 250 254 306 333 340 331 335 336 332 332 330 330 333 332 332 332 333 334 334 335 337 339 340 339 337 335 332 330 330 330 330 328 323 316 312 313 314 314 314 311 309 310 310 311 311 313 314 315 316 317 317 318 318 319 320 318 315 314 314 318 322 329 335
337 334 327 329 336 342 340 334 332 326 318 316 314 312 311 308 304 296 279 281 282 264 266 225 230 302 329 335 330 333 333 330 330 327 328 331 331 333 333 333 334 334 335 337 338 340 340 337 336 333 331 330 329 330 331 327 321 313 312 314 312 310 309 307 307 306 307 308 309 310 311 312 314 314 315 316 317 319 317 315 314 314 315 319 325 332
336 333 331 332 339 347 345 339 336 330 322 317 314 313 312 308 303 296 282 280 279 270 264 197 239 302 324 330 327 332 331 327 325 323 326 330 331 333 334 333 334 333 334 336 337 339 340 338 337 335 333 331 329 329 330 329 326 318 313 311 309 307 305 306 307 307 306 305 305 306 308 309 310 311 312 313 314 316 317 317 317 317 316 317 321 328
325 325 330 329 329 331 320 319 325 323 317 314 314 314 312 308 302 295 285 269 269 277 261 230 271 306 322 327 325 330 328 322 323 324 326 330 332 333 334 333 334 333 334 336 336 337 339 338 337 335 334 332 329 327 327 327 327 323 317 310 306 305 305 305 307 307 306 304 303 303 304 305 307 307 308 310 312 314 316 318 321 321 318 316 317 323
321 322 328 320 309 309 310 316 322 319 313 313 316 314 310 308 302 292 274 263 275 282 274 277 292 306 321 329 329 329 326 322 323 326 328 331 333 333 333 333 333 333 334 335 335 335 337 337 337 335 334 333 330 327 325 324 325 324 322 315 308 306 306 306 306 305 304 304 303 303 303 303 304 305 305 306 308 311 314 318 322 323 321 319 317 320
321 321 326 321 317 321 324 326 326 317 313 316 320 318 312 308 299 286 278 284 290 279 283 304 309 302 314 331 333 329 327 324 324 327 329 332 333 332 332 332 333 333 333 334 333 333 334 336 336 335 333 333 331 329 325 323 323 324 324 322 317 310 307 306 305 303 301 302 302 303 304 303 302 302 302 303 305 309 313 317 321 323 322 322 320 319
319 319 324 322 322 328 331 328 325 322 322 324 326 321 313 305 296 291 297 303 293 273 287 312 312 302 315 333 333 328 328 325 325 329 330 333 334 331 331 332 332 332 331 332 332 331 332 333 334 335 334 333 332 330 328 325 323 323 323 325 325 319 311 305 303 302 301 300 300 301 304 304 303 301 300 300 303 307 312 316 320 323 323 322 321 320
316 317 323 321 322 332 337 330 329 332 330 328 329 323 312 308 305 303 309 312 295 285 300 313 309 309 326 337 330 330 331 326 327 331 332 334 334 330 330 331 332 331 330 330 330 330 330 331 332 335 335 334 333 331 329 326 324 323 323 326 328 326 319 310 303 301 301 300 299 299 301 303 304 302 298 298 301 305 309 315 320 323 323 321 320 319
313 314 320 319 320 331 343 335 333 333 326 320 327 337 327 320 316 312 313 313 300 298 312 314 304 314 335 338 331 334 334 331 332 333 334 336 334 329 329 330 330 330 328 329 329 328 329 329 331 334 334 334 333 332 330 327 326 325 325 326 328 328 326 319 308 302 300 299 299 298 298 300 302 301 298 296 298 302 307 312 318 322 322 320 319 318
313 311 317 318 315 324 338 335 332 331 323 315 329 339 331 319 318 318 318 318 312 312 318 310 303 319 337 338 333 335 335 333 334 334 336 338 334 329 329 330 330 329 328 328 328 327 328 329 330 332 333 332 333 333 331 330 329 329 327 326 326 327 328 325 318 309 301 299 298 298 297 297 299 300 298 295 296 298 303 308 314 318 319 319 320 318
312 309 315 317 310 319 333 332 330 333 330 326 331 329 322 318 321 324 324 325 324 322 316 307 312 329 337 335 333 334 334 333 333 334 338 338 333 330 330 331 330 329 328 327 326 327 327 328 329 330 331 332 332 333 333 332 332 331 329 327 326 326 327 328 326 319 309 301 297 297 297 296 297 297 296 295 294 294 298 302 308 313 315 317 319 317
310 309 312 311 306 316 327 330 331 335 333 329 329 324 324 328 329 328 327 329 330 326 317 313 323 333 335 334 334 332 332 332 332 336 341 338 333 332 332 331 331 329 329 327 326 326 326 327 328 328 329 331 331 332 333 333 333 333 331 329 328 328 328 328 329 327 319 308 299 297 298 297 297 296 294 294 293 292 294 297 302 307 311 314 315 312
309 309 309 308 306 312 322 333 340 332 323 329 329 329 333 332 331 329 327 331 334 330 321 321 329 334 334 334 334 331 331 331 332 337 342 337 334 334 332 332 331 330 329 328 326 326 326 326 327 327 328 329 330 331 332 332 333 332 331 331 331 330 328 327 329 330 327 318 307 300 299 298 298 296 294 294 293 292 293 294 297 302 305 308 308 305
310 309 308 309 308 309 318 328 320 311 326 338 340 336 335 332 332 330 326 332 338 332 323 328 332 334 334 333 333 331 330 330 332 338 341 336 334 335 333 332 332 330 330 330 328 327 326 325 326 326 326 327 328 330 331 330 331 332 331 332 332 332 330 328 328 329 330 327 318 307 301 299 299 297 296 295 294 294 293 293 295 297 299 301 301 298
311 308 308 308 306 304 305 306 305 311 327 343 342 337 336 332 333 329 322 329 340 335 330 332 332 331 332 332 332 332 331 330 332 338 340 335 334 335 334 334 334 332 332 331 329 328 326 325 325 325 324 325 326 327 329 329 330 331 331 331 332 333 332 331 330 329 329 329 325 316 307 301 299 298 297 296 296 295 295 295 294 294 295 295 294 293
311 307 307 302 297 295 297 307 314 313 325 337 337 337 336 332 332 327 318 324 337 338 332 331 329 330 332 331 331 332 331 330 331 336 338 334 333 334 333 333 334 333 333 331 330 329 327 325 325 323 322 323 324 325 327 328 329 329 330 331 332 333 334 333 331 329 327 327 327 323 316 307 302 300 297 296 296 296 297 296 295 294 293 291 289 289
311 308 307 298 292 292 289 291 289 278 314 335 339 338 336 332 331 327 317 320 333 336 333 331 329 330 331 330 330 330 329 328 329 333 334 332 331 333 331 331 332 332 332 332 330 329 328 326 324 322 320 321 321 322 324 326 326 327 328 330 331 332 334 333 332 329 327 326 325 325 323 316 308 302 298 296 296 296 296 296 296 296 294 290 288 286
311 308 304 297 293 293 284 275 276 288 316 339 342 337 335 332 329 328 319 322 332 335 334 332 331 330 330 329 327 326 325 325 326 329 330 329 330 331 329 329 330 330 331 331 330 329 328 326 323 321 319 319 319 320 322 323 324 325 326 328 329 330 332 332 331 331 329 326 324 322 322 321 316 308 301 297 295 294 294 295 298 298 296 292 289 286
309 306 301 295 294 293 280 272 283 301 325 343 340 334 333 329 327 326 320 324 331 333 334 333 331 330 330 328 325 324 323 323 324 326 327 327 327 328 327 326 327 328 328 329 329 329 327 326 324 321 318 317 317 318 319 320 322 323 325 326 327 329 330 331 331 332 330 328 325 322 320 321 320 316 308 299 294 292 291 293 297 299 297 294 291 289
304 302 297 295 295 294 285 279 284 304 333 344 338 333 331 327 324 324 323 326 328 329 330 331 330 329 329 327 325 323 322 322 324 324 324 324 324 325 324 324 325 326 326 326 327 327 327 326 324 321 318 317 316 316 317 318 320 322 323 324 325 326 328 329 331 331 331 329 327 324 320 319 319 319 315 306 297 291 290 292 294 296 297 295 293 291
302 296 294 298 302 297 288 284 288 309 332 340 338 333 329 324 323 324 324 324 323 323 325 325 325 327 327 326 324 323 322 322 323 323 322 321 322 322 321 321 322 323 324 324 325 326 325 325 324 322 319 317 315 315 315 316 318 319 320 321 323 325 326 328 329 330 331 331 328 325 322 319 318 319 318 312 303 294 290 290 292 294 296 296 295 293
304 301 298 302 305 297 283 285 302 315 325 331 332 327 324 324 325 326 324 321 320 320 320 319 319 321 323 323 322 322 321 321 321 321 321 320 320 320 319 319 319 320 321 322 322 323 324 324 324 323 321 318 315 314 313 313 314 316 318 319 321 322 324 326 328 329 331 331 330 327 323 320 319 319 319 316 309 300 292 290 290 292 294 294 295 294
309 311 306 303 304 301 294 299 312 321 325 327 324 322 323 325 327 326 323 321 319 319 319 317 316 317 319 319 320 319 319 319 320 319 319 320 320 319 318 317 317 317 318 319 320 321 321 322 322 322 321 319 317 314 312 312 312 314 316 318 319 320 322 324 326 328 330 330 331 329 325 323 321 320 319 318 313 307 299 293 290 290 292 293 294 294
318 319 314 311 313 311 305 310 321 323 320 320 319 319 324 326 327 326 324 322 321 319 318 317 316 316 316 316 316 316 316 317 318 318 319 320 320 319 318 317 317 316 315 316 317 317 318 319 320 320 320 320 318 315 312 311 310 312 314 316 317 318 320 322 324 326 328 329 330 330 328 325 323 322 322 320 317 313 307 300 294 290 290 291 292 293
327 326 321 320 321 315 310 318 328 320 313 314 317 321 325 326 326 326 324 322 321 320 319 317 316 314 313 312 312 312 313 315 315 315 317 318 318 318 319 318 317 316 314 314 314 314 315 316 317 318 319 319 318 316 313 310 309 310 311 313 315 316 317 319 322 324 326 328 329 330 329 327 326 324 323 322 322 321 317 310 303 296 292 291 291 292
335 333 330 327 324 318 315 322 327 318 310 314 321 325 328 328 327 327 326 325 324 323 321 319 317 314 312 311 312 312 313 314 314 314 314 314 314 315 317 317 317 315 313 313 312 311 312 314 314 315 316 317 317 316 314 310 308 308 309 310 312 313 315 317 319 322 324 326 328 328 328 329 328 324 322 323 326 327 325 320 315 309 302 297 294 293
340 338 338 332 325 321 322 327 329 322 317 321 327 331 332 332 331 330 330 330 329 328 327 324 322 320 318 317 317 316 315 316 317 315 314 312 312 312 312 313 313 312 312 311 310 310 311 312 311 312 314 315 315 315 314 310 307 306 307 308 309 311 313 314 317 320 323 324 326 327 328 328 328 325 322 323 327 330 329 326 322 318 312 308 304 300
343 341 343 339 332 329 331 335 335 330 325 327 331 333 334 334 333 332 332 334 333 331 329 327 326 326 324 324 324 322 320 320 320 317 315 314 313 311 309 309 309 308 309 309 309 309 311 310 309 310 311 312 313 314 313 310 307 305 305 305 306 308 310 312 315 318 320 323 324 325 326 327 328 326 323 323 327 330 331 329 326 323 318 315 313 311
348 346 347 345 338 333 333 335 333 330 328 329 332 333 333 334 333 332 332 333 332 330 328 326 325 325 324 323 323 321 319 319 318 316 315 315 314 313 312 310 309 307 308 308 308 309 309 308 307 308 309 310 311 312 312 309 306 304 303 303 304 305 307 310 312 314 318 320 322 323 324 325 327 328 325 323 325 328 330 330 329 329 326 321 318 317